This demonstration page uses our WeatherBlox Daily Observations layout. Learn more.

Left ArrowRight Arrow

34.02893, -84.19858

Hourly Observations for August 22, 2015

Temp ( °F °C ) Dew Point ( °F °C ) Humidity (%) Winds ( mph kmh ) Pressure ( in mb ) Visibility ( mi km ) Precip ( " mm )
12:53 am 00:53 Clear 75 23.9 70 21.1 84 84 N 3 6 30.01 1016 10 16 0.00 0.00
1:53 am 01:53 Clear 74 23.3 70 21.1 88 88 Calm 29.99 1016 10 16 0.00 0.00
2:53 am 02:53 Clear 73 22.8 71 21.7 94 94 Calm 29.97 1015 10 16 0.00 0.00
3:53 am 03:53 Clear 74 23.3 70 21.1 88 88 Calm 29.96 1015 10 16 0.00 0.00
4:53 am 04:53 Clear 74 23.3 71 21.7 91 91 Calm 29.98 1015 10 16 0.00 0.00
5:53 am 05:53 Mostly Cloudy 73 22.8 70 21.1 90 90 Calm 30.00 1016 10 16 0.00 0.00
6:53 am 06:53 Cloudy 73 22.8 72 22.2 96 96 S 3 6 30.03 1017 10 16 0.00 0.00
7:53 am 07:53 Mostly Cloudy 74 23.3 72 22.2 94 94 Calm 30.04 1017 10 16 0.00 0.00
8:53 am 08:53 Mostly Sunny 77 25 71 21.7 82 82 Calm 30.06 1018 10 16 0.00 0.00
9:36 am 09:36 Partly Cloudy 79 26 72 22 79 79 N 6 9 30.06 1018 10 16 0.00 0.00
9:53 am 09:53 Mostly Sunny 78 25.6 72 22.2 82 82 NNE 3 6 30.06 1018 10 16 0.00 0.00
10:53 am 10:53 Sunny 82 27.8 72 22.2 72 72 N 6 9 30.07 1018 10 16 0.00 0.00
11:53 am 11:53 Partly Cloudy 85 29.4 70 21.1 61 61 Calm 30.06 1018 10 16 0.00 0.00
12:53 pm 12:53 Mostly Sunny 86 30 71 21.7 61 61 VRB 3 6 30.05 1018 10 16 0.00 0.00
1:53 pm 13:53 Partly Cloudy 87 30.6 70 21.1 57 57 Calm 30.03 1017 10 16 0.00 0.00
2:53 pm 14:53 Partly Cloudy 89 31.7 70 21.1 53 53 NNE 5 7 30.00 1016 10 16 0.00 0.00
3:53 pm 15:53 Cloudy 87 30.6 71 21.7 59 59 S 5 7 29.99 1016 10 16 0.00 0.00
4:53 pm 16:53 Mostly Sunny 87 30.6 71 21.7 59 59 SSW 3 6 29.97 1015 10 16 0.00 0.00
5:53 pm 17:53 Sunny 89 31.7 70 21.1 53 53 NNW 3 6 29.96 1014 10 16 0.00 0.00
6:53 pm 18:53 Sunny 88 31.1 71 21.7 57 57 W 3 6 29.95 1014 10 16 0.00 0.00
7:53 pm 19:53 Mostly Sunny 85 29.4 73 22.8 68 68 W 3 6 29.94 1014 10 16 0.00 0.00
8:53 pm 20:53 Mostly Cloudy 83 28.3 74 23.3 74 74 E 5 7 29.96 1015 10 16 0.00 0.00
9:53 pm 21:53 Partly Cloudy 81 27.2 75 23.9 82 82 Calm 29.99 1016 10 16 0.00 0.00
10:09 pm 22:09 Partly Cloudy with Nearby Thunderstorms 80 26.7 75 23.9 85 85 Calm 30.00 1016 10 16 0.00 0.00
10:26 pm 22:26 Mostly Cloudy 81 27 75 24 84 84 E 3 6 30.00 1016 10 16 0.00 0.00
10:53 pm 22:53 Cloudy 80 26.7 75 23.9 85 85 E 3 6 30.00 1016 10 16 0.00 0.00
11:44 pm 23:44 Mostly Cloudy with Nearby Thunderstorms 79 26 73 23 84 84 N 8 13 30.00 1016 10 16 0.00 0.00
11:53 pm 23:53 Mostly Cloudy with Nearby Thunderstorms 78 25.6 72 22.2 82 82 NNE 7 11 30.00 1016 10 16 0.00 0.00

Powered by AerisWeather